Regional Weather Roundup
Issued by NWS

Home | Current Version | Previous Version | Text Only | Print | Product List | Glossary On
Versions: 1 2 3 4 5 6 7 8 9 10 11 12 13 14 15 16 17 18 19 20 21 22 23 24 25 26 27 28 29 30 31 32 33 34 35 36 37 38 39 40 41 42 43 44 45 46 47 48 49 50
000
ASUS43 KMPX 250010
RWRMN
WEATHER ROUNDUP FOR MINNESOTA
NATIONAL WEATHER SERVICE TWIN CITIES/CHANHASSEN MN
700 PM CDT THU APR 24 2014


NOTE: "FAIR" INDICATES FEW OR NO CLOUDS BELOW 12,000 FEET WITH NO
SIGNIFICANT WEATHER AND/OR OBSTRUCTIONS TO VISIBILITY. N/A MEANS
CURRENT SKY AND/OR WEATHER CONDITIONS ARE NOT AVAILABLE.

MNZ060>063-068>070-250100-
   Twin Cities Metro

CITY           SKY/WX    TMP DP  RH WIND       PRES   REMARKS
TWIN CITIES    CLOUDY    45  41  86 W10       29.69S
6HR MIN TEMP:  41; 6HR MAX TEMP:  45; 6HR PCP:  0.04;

ST PAUL        CLOUDY    45  41  86 W8        29.69F
CRYSTAL        CLOUDY    46  40  79 NW7       29.68S
BLAINE         PTSUNNY   46  45  93 W8        29.68S
EDEN PRAIRIE   CLOUDY    47  41  80 W9        29.68S
6HR MIN TEMP:  42; 6HR MAX TEMP:  48; 6HR PCP: TRACE;

LAKEVILLE      CLOUDY    45  41  87 W10       29.69R
SOUTH ST PAUL  CLOUDY    47  44  90 W6        29.68F
LAKE ELMO      CLOUDY    43  43 100 CALM      29.69F FOG
$$
MNZ001>005-007-008-013>017-022>024-027-028-250100-
   Northwest Minnesota

CITY           SKY/WX    TMP DP  RH WIND       PRES   REMARKS
BEMIDJI        LGT SNOW  32  32 100 E3        29.70F
HALLOCK        LGT RAIN  37  36  93 E7        29.74R
ROSEAU         LGT SNOW  34  28  80 E3        29.75S VSB 3/4
WARROAD        LGT SNOW  34  28  80 NE7       29.76S VSB 3/4 WCI  28
THIEF RVR FALL CLOUDY    34  30  86 E7        29.72F WCI  28
CROOKSTON      CLOUDY    39  39 100 E8        29.72R
FOSSTON        CLOUDY    34  34 100 CALM      29.71S
DETROIT LAKES  CLOUDY    39  37  93 SE3       29.71S
MOORHEAD       MOSUNNY   50  46  87 CALM      29.70R
PARK RAPIDS    CLOUDY    34  33  96 CALM      29.69F
$$
MNZ006-009>011-018-025>026-250100-
   North Central Minnesota

CITY           SKY/WX    TMP DP  RH WIND       PRES   REMARKS
BAUDETTE       SNOW      32  32 100 E5        29.76S VSB 1/2 WCI  27
FLAG ISLAND    MIX PCPN  34  32  93 E5        29.78R WCI  30
INTL FALLS     SNOW      33  31  92 E10       29.76R VSB 1/2 WCI  25
6HR MIN TEMP:  33; 6HR MAX TEMP:  38; 6HR PCP:  0.23;

WASKISH        LGT SNOW  34  32  93 NE3       29.74S
BIG FORK       CLOUDY    34  32  93 E1        29.73R VSB 1/2
LONGVILLE      CLOUDY    34  34 100 CALM      29.70S
GRAND RAPIDS   CLOUDY    34  30  86 CALM      29.70F VSB 3/4
CRANE LAKE     LGT SNOW  32  30  93 CALM      29.78S
ORR            MIX PCPN  32  30  93 E5        29.72R WCI  27
COOK           LGT SNOW  34  32  93 E5        29.74R WCI  30
$$
MNZ012-019>021-037-250100-
   Northeast Minnesota

CITY           SKY/WX    TMP DP  RH WIND       PRES   REMARKS
DULUTH         LGT SNOW  33  30  88 E18G26    29.70F VSB 1   WCI  22
6HR MIN TEMP:  33; 6HR MAX TEMP:  33; 6HR PCP:  0.28;

ELY            LGT SNOW  34  30  86 E9G17     29.75F WCI  26
HIBBING        LGT SNOW  34  32  92 E9        29.72R FOG     WCI  27
EVELETH        MIX PCPN  32  32 100 E6        29.73S WCI  26
DULUTH HARBOR  MIX PCPN  34  30  86 NE21      29.74F WCI  22
TWO HARBORS    LGT SNOW  32  27  80 E15       29.73F VSB 1   WCI  22
SILVER BAY     MIX PCPN  30  30 100 NE14G20   29.76S WCI  20
GRAND MARAIS     N/A     34  32  92 NE21G31   29.85F WCI  22
G MARAIS ARPRT MIX PCPN  30  27  86 E20G29    29.81F WCI  18
$$
MNZ029>031-032-039>041-046>048-054>057-064-250100-
   West Central Minnesota

CITY           SKY/WX    TMP DP  RH WIND       PRES   REMARKS
FERGUS FALLS   LGT RAIN  48  43  81 E3        29.65F
WHEATON        LGT RAIN  48  45  87 N5G17     29.72R
MORRIS         CLOUDY    48  43  81 N8        29.69F
ALEXANDRIA     CLOUDY    46  40  79 CALM      29.70S
ELBOW LAKE     DRIZZLE   47  43  85 W8        29.69F
WADENA         CLOUDY    37  36  93 CALM      29.70S
GLENWOOD       PTSUNNY   48  43  81 W8        29.70S
APPLETON       PTSUNNY   54  43  66 NW8       29.69F
BENSON         MOSUNNY   52  43  71 N9        29.72R
ORTONVILLE     PTSUNNY   52  41  66 N9        29.69F
MADISON        PTSUNNY   55  45  67 NE5       29.70S
WILLMAR        FAIR      52  41  66 NW13      29.72R
$$
MNZ033>034-036-042>043-049>051-058-059-250100-
   Central Minnesota

CITY           SKY/WX    TMP DP  RH WIND       PRES   REMARKS
ST CLOUD       CLOUDY    44  38  79 W8        29.70R
6HR MIN TEMP:  41; 6HR MAX TEMP:  45; 6HR PCP:  0.10;

SAUK CENTRE    CLOUDY    43  39  85 NW3       29.70S
PAYNESVILLE    MOSUNNY   47  41  80 CALM      29.70S
AITKIN         CLOUDY    36  30  80 CALM      29.69S
PINE RIVER     FLURRIES  34  34 100 CALM      29.75R
BRAINERD       LGT RAIN  39  33  79 CALM      29.71R
STAPLES        CLOUDY    37  36  93 CALM      29.70S
LONG PRAIRIE   PTSUNNY   43  37  81 CALM      29.70S
LITTLE FALLS   CLOUDY    37  36  93 W3        29.70S
LITCHFIELD     MOSUNNY   48  43  81 NW7       29.70R
BUFFALO        CLOUDY    44  39  82 W5        29.71R
MAPLE LAKE     CLOUDY    45  42  89 NW5       29.71R
$$
MNZ037-044-045-052-053-250100-
   East Central Minnesota

CITY           SKY/WX    TMP DP  RH WIND       PRES   REMARKS
PRINCETON      CLOUDY    43  39  87 W6        29.70R
MORA           CLOUDY    36  34  93 CALM      29.71R FOG
CAMBRIDGE      CLOUDY    45  37  76 W3        29.67S
RUSH CITY      CLOUDY    38  37  95 CALM      29.69S
MOOSE LAKE     LGT SNOW  32  32 100 NE5       29.68F WCI  27
HINCKLEY       CLOUDY    36  36 100 N3        29.69S
CLOQUET        LGT SNOW  34  32  93 E8        29.70F WCI  27
MCGREGOR       CLOUDY    34  32  93 CALM      29.70F
$$
MNZ071>073-080-081-089-090-097-098-250100-
   Southwest Minnesota

CITY           SKY/WX    TMP DP  RH WIND       PRES   REMARKS
MONTEVIDEO     LGT RAIN  54  45  71 N9        29.72R
GRANITE FALLS  MOSUNNY   52  43  69 NW6       29.72S
CANBY          PTSUNNY   54  43  66 N15       29.71R
MARSHALL       MOSUNNY   54  43  66 E6        29.68F
REDWOOD FALLS  PTSUNNY   53  42  66 N7        29.69F
OLIVIA         MOSUNNY   52  43  71 NW7       29.69S
PIPESTONE      MOSUNNY   57  43  58 E3        29.69S
WINDOM         SUNNY     54  43  66 N10       29.71S
WORTHINGTON    MOSUNNY   54  37  54 N8        29.73S
JACKSON        MOSUNNY   54  41  62 NW15      29.72R
TRACY          MOSUNNY   55  44  66 NE6       29.70F
SLAYTON        MOSUNNY   54  42  64 NE7       29.71S
$$
MNZ065>067-074>077-082>085-091>093-250100-
   South Central Minnesota

CITY           SKY/WX    TMP DP  RH WIND       PRES   REMARKS
MANKATO        PTSUNNY   48  41  76 NW9       29.70S
NEW ULM        SUNNY     52  45  76 N9        29.70R
ST JAMES       MOSUNNY   54  45  71 NW12      29.71S
FAIRMONT       PTSUNNY   54  43  66 NW10      29.72S
GLENCOE        CLOUDY    49  41  74 W7        29.70R
FARIBAULT      CLOUDY    48  43  81 W10       29.69S
OWATONNA       CLOUDY    46  41  81 NW10      29.69F
WASECA         CLOUDY    45  37  76 W9        29.72S
ALBERT LEA     CLOUDY    48  43  81 NW6       29.69S
$$
MNZ078>079-086>088-094>096-250100-
   Southeast Minnesota

CITY           SKY/WX    TMP DP  RH WIND       PRES   REMARKS
ROCHESTER      CLOUDY    45  41  86 NW9       29.68S FOG
6HR MIN TEMP:  42; 6HR MAX TEMP:  47; 6HR PCP:  0.02;

RED WING       CLOUDY    45  43  93 CALM      29.67F FOG
STANTON        CLOUDY    47  41  82 NW6       29.67F
DODGE CENTER   CLOUDY    48  43  81 NW12      29.68R
WINONA         CLOUDY    43  43 100 CALM      29.68S FOG
AUSTIN         CLOUDY    46  43  87 NW14      29.68S
PRESTON        CLOUDY    46  43  88 NW8       29.67F
$$
ABBREVIATIONS USED IN REMARKS
   TC - TEMPERATURES IN CELSIUS
  WCI - WIND CHILL INDEX
   HX - HEAT INDEX
  VSB - VISIBILITY
$$


USA.gov is the U.S. government's official web portal to all federal, state and local government web resources and services.